カタログに戻る

CZ-6A DEB

運用中SSO
NORAD 54277·DEBRIS·🇨🇳 China

打ち上げ Nov 11, 2022 から Taiyuan Satellite Launch Center

Loading…

次のパス (今後24時間)

TLE

最新Source: Space-Track

元期: Sep 14, 2026, 12:29 UTC

1 54277U 22151U   26257.52020108  .00000133  00000-0  84569-4 0  9999
2 54277  98.8200 282.0885 0046560 298.9041  60.7468 14.18988815198249

AllMySatでCZ-6A DEBをリアルタイム追跡

Download on the App Store